owner,sensor,date,latitude,longitude,vertical_datum,sea_water_practical_salinity,qcFlag 
TABS,ioos:station:wmo:42051:1,2017-01-01T00:00:00Z,29.6350,-93.6417,2.0,30.7564,11111222 
TABS,ioos:station:wmo:42051:1,2017-01-01T00:30:00Z,29.6350,-93.6417,2.0,30.1804,11111222 
TABS,ioos:station:wmo:42051:1,2017-01-01T01:00:00Z,29.6350,-93.6417,2.0,29.8703,11111222 
TABS,ioos:station:wmo:42051:1,2017-01-01T01:30:00Z,29.6350,-93.6417,2.0,29.5409,11111222 
TABS,ioos:station:wmo:42051:1,2017-01-01T02:00:00Z,29.6350,-93.6417,2.0,29.7916,11111222 
TABS,ioos:station:wmo:42051:1,2017-01-01T02:30:00Z,29.6350,-93.6417,2.0,28.9659,11111222 
TABS,ioos:station:wmo:42051:1,2017-01-01T03:00:00Z,29.6350,-93.6417,2.0,29.8324,11111222 
TABS,ioos:station:wmo:42051:1,2017-01-01T03:30:00Z,29.6350,-93.6417,2.0,29.4202,11111222 
TABS,ioos:station:wmo:42051:1,2017-01-01T04:00:00Z,29.6350,-93.6417,2.0,28.7845,11111222 
TABS,ioos:station:wmo:42051:1,2017-01-01T04:30:00Z,29.6350,-93.6417,2.0,29.1737,11111222 
TABS,ioos:station:wmo:42051:1,2017-01-01T05:00:00Z,29.6350,-93.6417,2.0,29.6376,11111222 
TABS,ioos:station:wmo:42051:1,2017-01-01T05:30:00Z,29.6350,-93.6417,2.0,29.6128,11111222 
TABS,ioos:station:wmo:42051:1,2017-01-01T06:00:00Z,29.6350,-93.6417,2.0,29.463,11111222 
TABS,ioos:station:wmo:42051:1,2017-01-01T06:30:00Z,29.6350,-93.6417,2.0,29.7201,11111222 
TABS,ioos:station:wmo:42051:1,2017-01-01T07:00:00Z,29.6350,-93.6417,2.0,30.1541,11111222 
TABS,ioos:station:wmo:42051:1,2017-01-01T07:30:00Z,29.6350,-93.6417,2.0,30.3475,11111222 
TABS,ioos:station:wmo:42051:1,2017-01-01T08:00:00Z,29.6350,-93.6417,2.0,30.4243,11111222 
TABS,ioos:station:wmo:42051:1,2017-01-01T08:30:00Z,29.6350,-93.6417,2.0,30.4691,11111222 
TABS,ioos:station:wmo:42051:1,2017-01-01T09:00:00Z,29.6350,-93.6417,2.0,30.5029,11111222 
TABS,ioos:station:wmo:42051:1,2017-01-01T09:30:00Z,29.6350,-93.6417,2.0,30.5846,11111222 
TABS,ioos:station:wmo:42051:1,2017-01-01T10:00:00Z,29.6350,-93.6417,2.0,30.638,11111222 
TABS,ioos:station:wmo:42051:1,2017-01-01T10:30:00Z,29.6350,-93.6417,2.0,30.6823,11111222 
TABS,ioos:station:wmo:42051:1,2017-01-01T11:00:00Z,29.6350,-93.6417,2.0,30.7036,11111222 
TABS,ioos:station:wmo:42051:1,2017-01-01T11:30:00Z,29.6350,-93.6417,2.0,30.7304,11111222 
TABS,ioos:station:wmo:42051:1,2017-01-01T12:00:00Z,29.6350,-93.6417,2.0,30.7662,11111222 
TABS,ioos:station:wmo:42051:1,2017-01-01T12:30:00Z,29.6350,-93.6417,2.0,30.7455,11111222 
TABS,ioos:station:wmo:42051:1,2017-01-01T13:00:00Z,29.6350,-93.6417,2.0,30.7206,11111222 
TABS,ioos:station:wmo:42051:1,2017-01-01T13:30:00Z,29.6350,-93.6417,2.0,30.6274,11111222 
TABS,ioos:station:wmo:42051:1,2017-01-01T14:00:00Z,29.6350,-93.6417,2.0,30.6158,11111222 
TABS,ioos:station:wmo:42051:1,2017-01-01T14:30:00Z,29.6350,-93.6417,2.0,30.5959,11111222 
TABS,ioos:station:wmo:42051:1,2017-01-01T15:00:00Z,29.6350,-93.6417,2.0,30.4696,11111222 
TABS,ioos:station:wmo:42051:1,2017-01-01T15:30:00Z,29.6350,-93.6417,2.0,30.4388,11111222 
TABS,ioos:station:wmo:42051:1,2017-01-01T16:00:00Z,29.6350,-93.6417,2.0,30.3755,11111222 
TABS,ioos:station:wmo:42051:1,2017-01-01T16:30:00Z,29.6350,-93.6417,2.0,30.3777,11111222 
TABS,ioos:station:wmo:42051:1,2017-01-01T17:00:00Z,29.6350,-93.6417,2.0,30.3413,11111222 
TABS,ioos:station:wmo:42051:1,2017-01-01T17:30:00Z,29.6350,-93.6417,2.0,30.3059,11111222 
TABS,ioos:station:wmo:42051:1,2017-01-01T18:00:00Z,29.6350,-93.6417,2.0,30.2674,11111222 
TABS,ioos:station:wmo:42051:1,2017-01-01T18:30:00Z,29.6350,-93.6417,2.0,30.2726,11111222 
TABS,ioos:station:wmo:42051:1,2017-01-01T19:00:00Z,29.6350,-93.6417,2.0,30.2853,11111222 
TABS,ioos:station:wmo:42051:1,2017-01-01T19:30:00Z,29.6350,-93.6417,2.0,30.2509,11111222 
TABS,ioos:station:wmo:42051:1,2017-01-01T20:00:00Z,29.6350,-93.6417,2.0,30.2064,11111222 
TABS,ioos:station:wmo:42051:1,2017-01-01T20:30:00Z,29.6350,-93.6417,2.0,30.1984,11111222 
TABS,ioos:station:wmo:42051:1,2017-01-01T21:00:00Z,29.6350,-93.6417,2.0,30.1617,11111222 
TABS,ioos:station:wmo:42051:1,2017-01-01T21:30:00Z,29.6350,-93.6417,2.0,30.2026,11111222 
TABS,ioos:station:wmo:42051:1,2017-01-01T22:00:00Z,29.6350,-93.6417,2.0,30.2207,11111222 
TABS,ioos:station:wmo:42051:1,2017-01-01T22:30:00Z,29.6350,-93.6417,2.0,30.1543,11111222 
TABS,ioos:station:wmo:42051:1,2017-01-01T23:00:00Z,29.6350,-93.6417,2.0,30.1259,11111222 
TABS,ioos:station:wmo:42051:1,2017-01-01T23:30:00Z,29.6350,-93.6417,2.0,30.0292,11111222 
TABS,ioos:station:wmo:42051:1,2017-01-02T00:00:00Z,29.6350,-93.6417,2.0,30.0133,11111222 
TABS,ioos:station:wmo:42051:1,2017-01-02T00:30:00Z,29.6350,-93.6417,2.0,29.9745,11111222 
TABS,ioos:station:wmo:42051:1,2017-01-02T01:00:00Z,29.6350,-93.6417,2.0,29.9891,11111222 
TABS,ioos:station:wmo:42051:1,2017-01-02T01:30:00Z,29.6350,-93.6417,2.0,29.9214,11111222 
TABS,ioos:station:wmo:42051:1,2017-01-02T02:00:00Z,29.6350,-93.6417,2.0,29.9093,11111222 
TABS,ioos:station:wmo:42051:1,2017-01-02T02:30:00Z,29.6350,-93.6417,2.0,29.8627,11111222 
TABS,ioos:station:wmo:42051:1,2017-01-02T03:00:00Z,29.6350,-93.6417,2.0,29.8634,11111222 
TABS,ioos:station:wmo:42051:1,2017-01-02T03:30:00Z,29.6350,-93.6417,2.0,29.7924,11111222 
TABS,ioos:station:wmo:42051:1,2017-01-02T04:00:00Z,29.6350,-93.6417,2.0,29.7459,11111222 
TABS,ioos:station:wmo:42051:1,2017-01-02T04:30:00Z,29.6350,-93.6417,2.0,29.7505,11111222 
TABS,ioos:station:wmo:42051:1,2017-01-02T05:00:00Z,29.6350,-93.6417,2.0,29.6993,11111222 
TABS,ioos:station:wmo:42051:1,2017-01-02T05:30:00Z,29.6350,-93.6417,2.0,29.6409,11111222 
TABS,ioos:station:wmo:42051:1,2017-01-02T06:00:00Z,29.6350,-93.6417,2.0,29.6434,11111222 
TABS,ioos:station:wmo:42051:1,2017-01-02T06:30:00Z,29.6350,-93.6417,2.0,29.6545,11111222 
TABS,ioos:station:wmo:42051:1,2017-01-02T07:00:00Z,29.6350,-93.6417,2.0,29.6773,11111222 
TABS,ioos:station:wmo:42051:1,2017-01-02T07:30:00Z,29.6350,-93.6417,2.0,29.726,11111222 
TABS,ioos:station:wmo:42051:1,2017-01-02T08:00:00Z,29.6350,-93.6417,2.0,29.7553,11111222 
TABS,ioos:station:wmo:42051:1,2017-01-02T08:30:00Z,29.6350,-93.6417,2.0,29.7742,11111222 
TABS,ioos:station:wmo:42051:1,2017-01-02T09:00:00Z,29.6350,-93.6417,2.0,29.7753,11111222 
TABS,ioos:station:wmo:42051:1,2017-01-02T09:30:00Z,29.6350,-93.6417,2.0,29.8438,11111222 
TABS,ioos:station:wmo:42051:1,2017-01-02T10:00:00Z,29.6350,-93.6417,2.0,29.8446,11111222 
TABS,ioos:station:wmo:42051:1,2017-01-02T10:30:00Z,29.6350,-93.6417,2.0,29.7894,11111222 
TABS,ioos:station:wmo:42051:1,2017-01-02T11:00:00Z,29.6350,-93.6417,2.0,29.6931,11111222 
TABS,ioos:station:wmo:42051:1,2017-01-02T11:30:00Z,29.6350,-93.6417,2.0,29.7672,11111222 
TABS,ioos:station:wmo:42051:1,2017-01-02T12:00:00Z,29.6350,-93.6417,2.0,29.8198,11111222 
TABS,ioos:station:wmo:42051:1,2017-01-02T12:30:00Z,29.6350,-93.6417,2.0,29.8389,11111222 
TABS,ioos:station:wmo:42051:1,2017-01-02T13:00:00Z,29.6350,-93.6417,2.0,29.7966,11111222 
TABS,ioos:station:wmo:42051:1,2017-01-02T13:30:00Z,29.6350,-93.6417,2.0,29.8074,11111222 
TABS,ioos:station:wmo:42051:1,2017-01-02T14:00:00Z,29.6350,-93.6417,2.0,29.863,11111222 
TABS,ioos:station:wmo:42051:1,2017-01-02T14:30:00Z,29.6350,-93.6417,2.0,29.9336,11111222 
TABS,ioos:station:wmo:42051:1,2017-01-02T15:00:00Z,29.6350,-93.6417,2.0,29.9532,11111222 
TABS,ioos:station:wmo:42051:1,2017-01-02T15:30:00Z,29.6350,-93.6417,2.0,29.9695,11111222 
TABS,ioos:station:wmo:42051:1,2017-01-02T16:00:00Z,29.6350,-93.6417,2.0,29.9714,11111222 
TABS,ioos:station:wmo:42051:1,2017-01-02T16:30:00Z,29.6350,-93.6417,2.0,29.988,11111222 
TABS,ioos:station:wmo:42051:1,2017-01-02T17:00:00Z,29.6350,-93.6417,2.0,30.0053,11111222 
TABS,ioos:station:wmo:42051:1,2017-01-02T17:30:00Z,29.6350,-93.6417,2.0,30.0673,11111222 
TABS,ioos:station:wmo:42051:1,2017-01-02T18:00:00Z,29.6350,-93.6417,2.0,29.9844,11111222 
TABS,ioos:station:wmo:42051:1,2017-01-02T18:30:00Z,29.6350,-93.6417,2.0,29.2636,11111222 
TABS,ioos:station:wmo:42051:1,2017-01-02T19:00:00Z,29.6350,-93.6417,2.0,28.953,11111222 
TABS,ioos:station:wmo:42051:1,2017-01-02T19:30:00Z,29.6350,-93.6417,2.0,28.3724,11111222 
TABS,ioos:station:wmo:42051:1,2017-01-02T20:00:00Z,29.6350,-93.6417,2.0,28.0461,11111222 
TABS,ioos:station:wmo:42051:1,2017-01-02T20:30:00Z,29.6350,-93.6417,2.0,27.6758,11111222 
TABS,ioos:station:wmo:42051:1,2017-01-02T21:00:00Z,29.6350,-93.6417,2.0,27.5162,11111222 
TABS,ioos:station:wmo:42051:1,2017-01-02T21:30:00Z,29.6350,-93.6417,2.0,27.238,11111222 
TABS,ioos:station:wmo:42051:1,2017-01-02T22:00:00Z,29.6350,-93.6417,2.0,26.9415,11111222 
TABS,ioos:station:wmo:42051:1,2017-01-02T22:30:00Z,29.6350,-93.6417,2.0,26.8705,11111222 
TABS,ioos:station:wmo:42051:1,2017-01-02T23:00:00Z,29.6350,-93.6417,2.0,26.5507,11111222 
TABS,ioos:station:wmo:42051:1,2017-01-02T23:30:00Z,29.6350,-93.6417,2.0,26.4766,11111222 
TABS,ioos:station:wmo:42051:1,2017-01-03T00:00:00Z,29.6350,-93.6417,2.0,26.3971,11111222 
TABS,ioos:station:wmo:42051:1,2017-01-03T00:30:00Z,29.6350,-93.6417,2.0,26.7432,11111222 
TABS,ioos:station:wmo:42051:1,2017-01-03T01:00:00Z,29.6350,-93.6417,2.0,26.9287,11111222 
TABS,ioos:station:wmo:42051:1,2017-01-03T01:30:00Z,29.6350,-93.6417,2.0,26.5539,11111222 
TABS,ioos:station:wmo:42051:1,2017-01-03T02:00:00Z,29.6350,-93.6417,2.0,26.6178,11111222 
TABS,ioos:station:wmo:42051:1,2017-01-03T02:30:00Z,29.6350,-93.6417,2.0,26.7895,11111222 
TABS,ioos:station:wmo:42051:1,2017-01-03T03:00:00Z,29.6350,-93.6417,2.0,25.9621,11111222 
TABS,ioos:station:wmo:42051:1,2017-01-03T03:30:00Z,29.6350,-93.6417,2.0,26.078,11111222 
TABS,ioos:station:wmo:42051:1,2017-01-03T04:00:00Z,29.6350,-93.6417,2.0,27.0807,11111222 
TABS,ioos:station:wmo:42051:1,2017-01-03T04:30:00Z,29.6350,-93.6417,2.0,26.8647,11111222 
TABS,ioos:station:wmo:42051:1,2017-01-03T05:00:00Z,29.6350,-93.6417,2.0,27.3782,11111222 
TABS,ioos:station:wmo:42051:1,2017-01-03T05:30:00Z,29.6350,-93.6417,2.0,27.7514,11111222 
TABS,ioos:station:wmo:42051:1,2017-01-03T06:00:00Z,29.6350,-93.6417,2.0,27.766,11111222 
TABS,ioos:station:wmo:42051:1,2017-01-03T06:30:00Z,29.6350,-93.6417,2.0,28.2946,11111222 
TABS,ioos:station:wmo:42051:1,2017-01-03T07:00:00Z,29.6350,-93.6417,2.0,28.0889,11111222 
TABS,ioos:station:wmo:42051:1,2017-01-03T07:30:00Z,29.6350,-93.6417,2.0,28.4092,11111222 
TABS,ioos:station:wmo:42051:1,2017-01-03T08:00:00Z,29.6350,-93.6417,2.0,28.5954,11111222 
TABS,ioos:station:wmo:42051:1,2017-01-03T08:30:00Z,29.6350,-93.6417,2.0,27.7619,11111222 
TABS,ioos:station:wmo:42051:1,2017-01-03T09:00:00Z,29.6350,-93.6417,2.0,27.4137,11111222 
TABS,ioos:station:wmo:42051:1,2017-01-03T09:30:00Z,29.6350,-93.6417,2.0,27.3655,11111222 
TABS,ioos:station:wmo:42051:1,2017-01-03T10:00:00Z,29.6350,-93.6417,2.0,27.2733,11111222 
TABS,ioos:station:wmo:42051:1,2017-01-03T10:30:00Z,29.6350,-93.6417,2.0,27.0739,11111222 
TABS,ioos:station:wmo:42051:1,2017-01-03T11:00:00Z,29.6350,-93.6417,2.0,26.8962,11111222 
TABS,ioos:station:wmo:42051:1,2017-01-03T11:30:00Z,29.6350,-93.6417,2.0,26.7733,11111222 
TABS,ioos:station:wmo:42051:1,2017-01-03T12:00:00Z,29.6350,-93.6417,2.0,28.1136,11111222 
TABS,ioos:station:wmo:42051:1,2017-01-03T12:30:00Z,29.6350,-93.6417,2.0,27.5142,11111222 
TABS,ioos:station:wmo:42051:1,2017-01-03T13:00:00Z,29.6350,-93.6417,2.0,27.2621,11111222 
TABS,ioos:station:wmo:42051:1,2017-01-03T13:30:00Z,29.6350,-93.6417,2.0,27.6858,11111222 
TABS,ioos:station:wmo:42051:1,2017-01-03T14:00:00Z,29.6350,-93.6417,2.0,27.8078,11111222 
TABS,ioos:station:wmo:42051:1,2017-01-03T14:30:00Z,29.6350,-93.6417,2.0,28.0153,11111222 
TABS,ioos:station:wmo:42051:1,2017-01-03T15:00:00Z,29.6350,-93.6417,2.0,27.4336,11111222 
TABS,ioos:station:wmo:42051:1,2017-01-03T15:30:00Z,29.6350,-93.6417,2.0,27.5014,11111222 
TABS,ioos:station:wmo:42051:1,2017-01-03T16:00:00Z,29.6350,-93.6417,2.0,26.5142,11111222 
TABS,ioos:station:wmo:42051:1,2017-01-03T16:30:00Z,29.6350,-93.6417,2.0,27.7702,11111222 
TABS,ioos:station:wmo:42051:1,2017-01-03T17:00:00Z,29.6350,-93.6417,2.0,28.8814,11111222 
TABS,ioos:station:wmo:42051:1,2017-01-03T17:30:00Z,29.6350,-93.6417,2.0,28.2093,11111222 
TABS,ioos:station:wmo:42051:1,2017-01-03T18:00:00Z,29.6350,-93.6417,2.0,29.3512,11111222 
TABS,ioos:station:wmo:42051:1,2017-01-03T18:30:00Z,29.6350,-93.6417,2.0,29.2345,11111222 
TABS,ioos:station:wmo:42051:1,2017-01-03T19:00:00Z,29.6350,-93.6417,2.0,27.1405,11111222 
TABS,ioos:station:wmo:42051:1,2017-01-03T19:30:00Z,29.6350,-93.6417,2.0,28.511,11111222 
TABS,ioos:station:wmo:42051:1,2017-01-03T20:00:00Z,29.6350,-93.6417,2.0,26.3159,11111222 
TABS,ioos:station:wmo:42051:1,2017-01-03T20:30:00Z,29.6350,-93.6417,2.0,28.2758,11111222 
TABS,ioos:station:wmo:42051:1,2017-01-03T21:00:00Z,29.6350,-93.6417,2.0,27.0242,11111222 
TABS,ioos:station:wmo:42051:1,2017-01-03T21:30:00Z,29.6350,-93.6417,2.0,28.7212,11111222 
TABS,ioos:station:wmo:42051:1,2017-01-03T22:00:00Z,29.6350,-93.6417,2.0,25.0946,11111222 
TABS,ioos:station:wmo:42051:1,2017-01-03T22:30:00Z,29.6350,-93.6417,2.0,28.5225,11111222 
TABS,ioos:station:wmo:42051:1,2017-01-03T23:00:00Z,29.6350,-93.6417,2.0,26.1328,11111222 
TABS,ioos:station:wmo:42051:1,2017-01-03T23:30:00Z,29.6350,-93.6417,2.0,25.4642,11111222 
TABS,ioos:station:wmo:42051:1,2017-01-04T00:00:00Z,29.6350,-93.6417,2.0,25.4492,11111222 
TABS,ioos:station:wmo:42051:1,2017-01-04T00:30:00Z,29.6350,-93.6417,2.0,25.7758,11111222 
TABS,ioos:station:wmo:42051:1,2017-01-04T01:00:00Z,29.6350,-93.6417,2.0,25.6818,11111222 
TABS,ioos:station:wmo:42051:1,2017-01-04T01:30:00Z,29.6350,-93.6417,2.0,25.2483,11111222 
TABS,ioos:station:wmo:42051:1,2017-01-04T02:00:00Z,29.6350,-93.6417,2.0,24.8567,11111222 
TABS,ioos:station:wmo:42051:1,2017-01-04T02:30:00Z,29.6350,-93.6417,2.0,25.1944,11111222 
TABS,ioos:station:wmo:42051:1,2017-01-04T03:00:00Z,29.6350,-93.6417,2.0,25.5997,11111222 
TABS,ioos:station:wmo:42051:1,2017-01-04T03:30:00Z,29.6350,-93.6417,2.0,25.5456,11111222 
TABS,ioos:station:wmo:42051:1,2017-01-04T04:00:00Z,29.6350,-93.6417,2.0,26.2251,11111222 
TABS,ioos:station:wmo:42051:1,2017-01-04T04:30:00Z,29.6350,-93.6417,2.0,26.4857,11111222 
TABS,ioos:station:wmo:42051:1,2017-01-04T05:00:00Z,29.6350,-93.6417,2.0,26.7796,11111222 
TABS,ioos:station:wmo:42051:1,2017-01-04T05:30:00Z,29.6350,-93.6417,2.0,27.087,11111222 
TABS,ioos:station:wmo:42051:1,2017-01-04T06:00:00Z,29.6350,-93.6417,2.0,27.1303,11111222 
TABS,ioos:station:wmo:42051:1,2017-01-04T06:30:00Z,29.6350,-93.6417,2.0,27.0973,11111222 
TABS,ioos:station:wmo:42051:1,2017-01-04T07:00:00Z,29.6350,-93.6417,2.0,27.1181,11111222 
TABS,ioos:station:wmo:42051:1,2017-01-04T07:30:00Z,29.6350,-93.6417,2.0,27.3288,11111222 
TABS,ioos:station:wmo:42051:1,2017-01-04T08:00:00Z,29.6350,-93.6417,2.0,27.483,11111222 
TABS,ioos:station:wmo:42051:1,2017-01-04T08:30:00Z,29.6350,-93.6417,2.0,27.5022,11111222 
TABS,ioos:station:wmo:42051:1,2017-01-04T09:00:00Z,29.6350,-93.6417,2.0,27.7387,11111222 
TABS,ioos:station:wmo:42051:1,2017-01-04T09:30:00Z,29.6350,-93.6417,2.0,27.8171,11111222 
TABS,ioos:station:wmo:42051:1,2017-01-04T10:00:00Z,29.6350,-93.6417,2.0,27.8,11111222 
TABS,ioos:station:wmo:42051:1,2017-01-04T10:30:00Z,29.6350,-93.6417,2.0,27.6972,11111222 
TABS,ioos:station:wmo:42051:1,2017-01-04T11:00:00Z,29.6350,-93.6417,2.0,27.8079,11111222 
TABS,ioos:station:wmo:42051:1,2017-01-04T11:30:00Z,29.6350,-93.6417,2.0,27.8211,11111222 
TABS,ioos:station:wmo:42051:1,2017-01-04T12:00:00Z,29.6350,-93.6417,2.0,27.9438,11111222 
TABS,ioos:station:wmo:42051:1,2017-01-04T12:30:00Z,29.6350,-93.6417,2.0,27.9286,11111222 
TABS,ioos:station:wmo:42051:1,2017-01-04T13:00:00Z,29.6350,-93.6417,2.0,27.9495,11111222 
TABS,ioos:station:wmo:42051:1,2017-01-04T13:30:00Z,29.6350,-93.6417,2.0,27.9928,11111222 
TABS,ioos:station:wmo:42051:1,2017-01-04T14:00:00Z,29.6350,-93.6417,2.0,28.0555,11111222 
TABS,ioos:station:wmo:42051:1,2017-01-04T14:30:00Z,29.6350,-93.6417,2.0,28.0766,11111222 
TABS,ioos:station:wmo:42051:1,2017-01-04T15:00:00Z,29.6350,-93.6417,2.0,28.1386,11111222 
TABS,ioos:station:wmo:42051:1,2017-01-04T15:30:00Z,29.6350,-93.6417,2.0,28.1717,11111222 
TABS,ioos:station:wmo:42051:1,2017-01-04T16:00:00Z,29.6350,-93.6417,2.0,28.1797,11111222 
TABS,ioos:station:wmo:42051:1,2017-01-04T16:30:00Z,29.6350,-93.6417,2.0,28.1166,11111222 
TABS,ioos:station:wmo:42051:1,2017-01-04T17:00:00Z,29.6350,-93.6417,2.0,28.0768,11111222 
TABS,ioos:station:wmo:42051:1,2017-01-04T17:30:00Z,29.6350,-93.6417,2.0,28.1031,11111222 
TABS,ioos:station:wmo:42051:1,2017-01-04T18:00:00Z,29.6350,-93.6417,2.0,28.1599,11111222 
TABS,ioos:station:wmo:42051:1,2017-01-04T18:30:00Z,29.6350,-93.6417,2.0,28.187,11111222 
TABS,ioos:station:wmo:42051:1,2017-01-04T19:00:00Z,29.6350,-93.6417,2.0,28.2266,11111222 
TABS,ioos:station:wmo:42051:1,2017-01-04T19:30:00Z,29.6350,-93.6417,2.0,28.209,11111222 
TABS,ioos:station:wmo:42051:1,2017-01-04T20:00:00Z,29.6350,-93.6417,2.0,28.1879,11111222 
TABS,ioos:station:wmo:42051:1,2017-01-04T20:30:00Z,29.6350,-93.6417,2.0,28.2349,11111222 
TABS,ioos:station:wmo:42051:1,2017-01-04T21:00:00Z,29.6350,-93.6417,2.0,28.2882,11111222 
TABS,ioos:station:wmo:42051:1,2017-01-04T21:30:00Z,29.6350,-93.6417,2.0,28.3548,11111222 
TABS,ioos:station:wmo:42051:1,2017-01-04T22:00:00Z,29.6350,-93.6417,2.0,28.2805,11111222 
TABS,ioos:station:wmo:42051:1,2017-01-04T22:30:00Z,29.6350,-93.6417,2.0,28.244,11111222 
TABS,ioos:station:wmo:42051:1,2017-01-04T23:00:00Z,29.6350,-93.6417,2.0,28.2795,11111222 
TABS,ioos:station:wmo:42051:1,2017-01-04T23:30:00Z,29.6350,-93.6417,2.0,28.281,11111222 
TABS,ioos:station:wmo:42051:1,2017-01-05T00:00:00Z,29.6350,-93.6417,2.0,28.291,11111222 
TABS,ioos:station:wmo:42051:1,2017-01-05T00:30:00Z,29.6350,-93.6417,2.0,28.2818,11111222 
TABS,ioos:station:wmo:42051:1,2017-01-05T01:00:00Z,29.6350,-93.6417,2.0,28.3073,11111222 
TABS,ioos:station:wmo:42051:1,2017-01-05T01:30:00Z,29.6350,-93.6417,2.0,28.3375,11111222 
TABS,ioos:station:wmo:42051:1,2017-01-05T02:00:00Z,29.6350,-93.6417,2.0,28.3878,11111222 
TABS,ioos:station:wmo:42051:1,2017-01-05T02:30:00Z,29.6350,-93.6417,2.0,28.4377,11111222 
TABS,ioos:station:wmo:42051:1,2017-01-05T03:00:00Z,29.6350,-93.6417,2.0,28.406,11111222 
TABS,ioos:station:wmo:42051:1,2017-01-05T03:30:00Z,29.6350,-93.6417,2.0,28.4987,11111222 
TABS,ioos:station:wmo:42051:1,2017-01-05T04:00:00Z,29.6350,-93.6417,2.0,28.3506,11111222 
TABS,ioos:station:wmo:42051:1,2017-01-05T04:30:00Z,29.6350,-93.6417,2.0,28.419,11111222 
TABS,ioos:station:wmo:42051:1,2017-01-05T05:00:00Z,29.6350,-93.6417,2.0,28.3424,11111222 
TABS,ioos:station:wmo:42051:1,2017-01-05T05:30:00Z,29.6350,-93.6417,2.0,28.2391,11111222 
TABS,ioos:station:wmo:42051:1,2017-01-05T06:00:00Z,29.6350,-93.6417,2.0,28.2143,11111222 
TABS,ioos:station:wmo:42051:1,2017-01-05T06:30:00Z,29.6350,-93.6417,2.0,28.1943,11111222 
TABS,ioos:station:wmo:42051:1,2017-01-05T07:00:00Z,29.6350,-93.6417,2.0,28.1897,11111222 
TABS,ioos:station:wmo:42051:1,2017-01-05T07:30:00Z,29.6350,-93.6417,2.0,28.2041,11111222 
TABS,ioos:station:wmo:42051:1,2017-01-05T08:00:00Z,29.6350,-93.6417,2.0,28.2634,11111222 
TABS,ioos:station:wmo:42051:1,2017-01-05T08:30:00Z,29.6350,-93.6417,2.0,28.2324,11111222 
TABS,ioos:station:wmo:42051:1,2017-01-05T09:00:00Z,29.6350,-93.6417,2.0,28.2383,11111222 
TABS,ioos:station:wmo:42051:1,2017-01-05T09:30:00Z,29.6350,-93.6417,2.0,28.279,11111222 
TABS,ioos:station:wmo:42051:1,2017-01-05T10:00:00Z,29.6350,-93.6417,2.0,28.3545,11111222 
TABS,ioos:station:wmo:42051:1,2017-01-05T10:30:00Z,29.6350,-93.6417,2.0,28.403,11111222 
TABS,ioos:station:wmo:42051:1,2017-01-05T11:00:00Z,29.6350,-93.6417,2.0,28.4083,11111222 
TABS,ioos:station:wmo:42051:1,2017-01-05T11:30:00Z,29.6350,-93.6417,2.0,28.4636,11111222 
TABS,ioos:station:wmo:42051:1,2017-01-05T12:00:00Z,29.6350,-93.6417,2.0,28.5023,11111222 
TABS,ioos:station:wmo:42051:1,2017-01-05T12:30:00Z,29.6350,-93.6417,2.0,28.5727,11111222 
TABS,ioos:station:wmo:42051:1,2017-01-05T13:00:00Z,29.6350,-93.6417,2.0,28.3717,11111222 
TABS,ioos:station:wmo:42051:1,2017-01-05T13:30:00Z,29.6350,-93.6417,2.0,28.4124,11111222 
TABS,ioos:station:wmo:42051:1,2017-01-05T14:00:00Z,29.6350,-93.6417,2.0,28.4222,11111222 
TABS,ioos:station:wmo:42051:1,2017-01-05T14:30:00Z,29.6350,-93.6417,2.0,28.4351,11111222 
TABS,ioos:station:wmo:42051:1,2017-01-05T15:00:00Z,29.6350,-93.6417,2.0,28.4605,11111222 
TABS,ioos:station:wmo:42051:1,2017-01-05T15:30:00Z,29.6350,-93.6417,2.0,28.4588,11111222 
TABS,ioos:station:wmo:42051:1,2017-01-05T16:00:00Z,29.6350,-93.6417,2.0,28.4702,11111222 
TABS,ioos:station:wmo:42051:1,2017-01-05T16:30:00Z,29.6350,-93.6417,2.0,28.4691,11111222 
TABS,ioos:station:wmo:42051:1,2017-01-05T17:00:00Z,29.6350,-93.6417,2.0,28.5133,11111222 
TABS,ioos:station:wmo:42051:1,2017-01-05T17:30:00Z,29.6350,-93.6417,2.0,28.5408,11111222 
TABS,ioos:station:wmo:42051:1,2017-01-05T18:00:00Z,29.6350,-93.6417,2.0,28.5617,11111222 
TABS,ioos:station:wmo:42051:1,2017-01-05T18:30:00Z,29.6350,-93.6417,2.0,28.5623,11111222 
TABS,ioos:station:wmo:42051:1,2017-01-05T19:00:00Z,29.6350,-93.6417,2.0,28.553,11111222 
TABS,ioos:station:wmo:42051:1,2017-01-05T19:30:00Z,29.6350,-93.6417,2.0,28.5511,11111222 
TABS,ioos:station:wmo:42051:1,2017-01-05T20:00:00Z,29.6350,-93.6417,2.0,28.55,11111222 
TABS,ioos:station:wmo:42051:1,2017-01-05T20:30:00Z,29.6350,-93.6417,2.0,28.5779,11111222 
TABS,ioos:station:wmo:42051:1,2017-01-05T21:00:00Z,29.6350,-93.6417,2.0,28.5879,11111222 
TABS,ioos:station:wmo:42051:1,2017-01-05T21:30:00Z,29.6350,-93.6417,2.0,28.5839,11111222 
TABS,ioos:station:wmo:42051:1,2017-01-05T22:00:00Z,29.6350,-93.6417,2.0,28.5864,11111222 
TABS,ioos:station:wmo:42051:1,2017-01-05T22:30:00Z,29.6350,-93.6417,2.0,28.6113,11111222 
TABS,ioos:station:wmo:42051:1,2017-01-05T23:00:00Z,29.6350,-93.6417,2.0,28.632,11111222 
TABS,ioos:station:wmo:42051:1,2017-01-05T23:30:00Z,29.6350,-93.6417,2.0,28.6467,11111222 
TABS,ioos:station:wmo:42051:1,2017-01-06T00:00:00Z,29.6350,-93.6417,2.0,28.6579,11111222 
TABS,ioos:station:wmo:42051:1,2017-01-06T00:30:00Z,29.6350,-93.6417,2.0,28.6544,11111222 
TABS,ioos:station:wmo:42051:1,2017-01-06T01:00:00Z,29.6350,-93.6417,2.0,28.6493,11111222 
TABS,ioos:station:wmo:42051:1,2017-01-06T01:30:00Z,29.6350,-93.6417,2.0,28.6336,11111222 
TABS,ioos:station:wmo:42051:1,2017-01-06T02:00:00Z,29.6350,-93.6417,2.0,28.614,11111222 
TABS,ioos:station:wmo:42051:1,2017-01-06T02:30:00Z,29.6350,-93.6417,2.0,28.614,11111222 
TABS,ioos:station:wmo:42051:1,2017-01-06T03:00:00Z,29.6350,-93.6417,2.0,28.5955,11111222 
TABS,ioos:station:wmo:42051:1,2017-01-06T03:30:00Z,29.6350,-93.6417,2.0,28.5694,11111222 
TABS,ioos:station:wmo:42051:1,2017-01-06T04:00:00Z,29.6350,-93.6417,2.0,28.5413,11111222 
TABS,ioos:station:wmo:42051:1,2017-01-06T04:30:00Z,29.6350,-93.6417,2.0,28.4999,11111222 
TABS,ioos:station:wmo:42051:1,2017-01-06T05:00:00Z,29.6350,-93.6417,2.0,28.4212,11111222 
TABS,ioos:station:wmo:42051:1,2017-01-06T05:30:00Z,29.6350,-93.6417,2.0,28.353,11111222 
TABS,ioos:station:wmo:42051:1,2017-01-06T06:00:00Z,29.6350,-93.6417,2.0,28.296,11111222 
TABS,ioos:station:wmo:42051:1,2017-01-06T06:30:00Z,29.6350,-93.6417,2.0,28.2264,11111222 
TABS,ioos:station:wmo:42051:1,2017-01-06T07:00:00Z,29.6350,-93.6417,2.0,28.2256,11111222 
TABS,ioos:station:wmo:42051:1,2017-01-06T07:30:00Z,29.6350,-93.6417,2.0,28.2019,11111222 
TABS,ioos:station:wmo:42051:1,2017-01-06T08:00:00Z,29.6350,-93.6417,2.0,28.1418,11111222 
TABS,ioos:station:wmo:42051:1,2017-01-06T08:30:00Z,29.6350,-93.6417,2.0,28.1251,11111222 
TABS,ioos:station:wmo:42051:1,2017-01-06T09:00:00Z,29.6350,-93.6417,2.0,28.0928,11111222 
TABS,ioos:station:wmo:42051:1,2017-01-06T09:30:00Z,29.6350,-93.6417,2.0,28.0981,11111222 
TABS,ioos:station:wmo:42051:1,2017-01-06T10:00:00Z,29.6350,-93.6417,2.0,28.1085,11111222 
TABS,ioos:station:wmo:42051:1,2017-01-06T10:30:00Z,29.6350,-93.6417,2.0,28.0863,11111222 
TABS,ioos:station:wmo:42051:1,2017-01-06T11:00:00Z,29.6350,-93.6417,2.0,28.1608,11111222 
TABS,ioos:station:wmo:42051:1,2017-01-06T11:30:00Z,29.6350,-93.6417,2.0,28.2506,11111222 
TABS,ioos:station:wmo:42051:1,2017-01-06T12:00:00Z,29.6350,-93.6417,2.0,28.2363,11111222 
TABS,ioos:station:wmo:42051:1,2017-01-06T12:30:00Z,29.6350,-93.6417,2.0,27.9161,11111222 